GW2438 Weather Reports


time (UTC)temp
F
wind
direction
speed
knots
gust
knots
rain 1hr
in
rain 24hr
in
rain mn
in
humidity
%
barometer
mb
20260508023604 63 352 0.9 1.7 0.00 0.00 0.00 56 1016.9
20260508022602 63 9 0.9 1.7 0.00 0.00 0.00 55 1016.9
20260508021620 63 4 0.9 1.7 0.00 0.00 0.00 55 1016.9
20260508020659 64 8 0.9 2.6 0.00 0.00 0.00 54 1017.0
20260508015617 64 351 0.9 2.6 0.00 0.00 0.00 54 1017.1
20260508014617 64 358 1.7 2.6 0.00 0.00 0.00 55 1017.1
20260508013553 64 346 2.6 5.2 0.00 0.00 0.00 53 1017.1
20260508012552 64 360 1.7 3.5 0.00 0.00 0.00 54 1017.3
20260508011550 64 31 1.7 3.5 0.00 0.00 0.00 53 1017.4
20260508010548 64 5 1.7 2.6 0.00 0.00 0.00 53 1017.4
20260508005547 64 353 1.7 3.5 0.00 0.00 0.00 53 1017.5
20260508004545 65 28 2.6 3.5 0.00 0.00 0.00 52 1017.6
20260508003543 65 18 2.6 6.1 0.00 0.00 0.00 52 1017.6
20260508002542 64 17 1.7 5.2 0.00 0.00 0.00 52 1017.7
20260508001540 64 359 1.7 5.2 0.00 0.00 0.00 52 1017.8
20260508000538 63 332 1.7 6.1 0.00 0.00 0.00 53 1017.9
20260507235536 64 2 2.6 6.1 0.00 0.00 0.00 52 1018.0
20260507234534 64 342 2.6 6.1 0.00 0.00 0.00 53 1018.0
20260507233533 64 234 0.9 1.7 0.00 0.00 0.00 55 1018.0
20260507232531 63 1 1.7 6.1 0.00 0.00 0.00 54 1018.0
20260507231529 64 13 2.6 7.0 0.00 0.00 0.00 55 1018.1
20260507230528 64 10 2.6 6.1 0.00 0.00 0.00 54 1018.2
20260507225547 63 357 2.6 5.2 0.00 0.00 0.00 54 1018.4
20260507224545 63 328 1.7 5.2 0.00 0.00 0.00 56 1018.5
20260507223522 63 345 2.6 5.2 0.00 0.00 0.00 55 1018.5
20260507222521 63 350 2.6 6.1 0.00 0.00 0.00 55 1018.5
20260507221519 63 4 4.3 7.8 0.00 0.00 0.00 56 1018.7
20260507220518 63 328 1.7 3.5 0.00 0.00 0.00 57 1018.9
20260507215515 63 351 0.9 5.2 0.00 0.00 0.00 57 1018.8
20260507214634 63 0 3.5 7.0 0.00 0.00 0.00 57 1019.0
20260507213612 63 7 3.5 7.0 0.00 0.00 0.00 57 1019.1
20260507212611 63 341 1.7 5.2 0.00 0.00 0.00 59 1019.3
20260507211629 62 303 1.7 3.5 0.00 0.00 0.00 59 1019.2
20260507210608 62 0 1.7 7.8 0.00 0.00 0.00 58 1019.5
20260507205606 62 356 2.6 6.1 0.00 0.00 0.00 60 1019.5
20260507204604 61 12 2.6 7.8 0.00 0.00 0.00 58 1019.5
20260507203602 61 32 2.6 6.1 0.00 0.00 0.00 60 1019.6
20260507202600 62 350 2.6 6.1 0.00 0.00 0.00 59 1019.7
20260507201558 62 349 1.7 6.1 0.00 0.00 0.00 60 1019.8
20260507200557 61 267 0.9 2.6 0.00 0.00 0.00 62 1020.0
20260507195616 61 347 1.7 5.2 0.00 0.00 0.00 63 1020.1
20260507194553 60 4 3.5 7.8 0.00 0.00 0.00 62 1020.1
20260507193552 61 14 2.6 6.1 0.00 0.00 0.00 61 1020.2
20260507192550 62 10 2.6 6.1 0.00 0.00 0.00 60 1020.2
20260507191609 61 217 0.9 1.7 0.00 0.00 0.00 64 1020.2
20260507190547 60 313 0.9 3.5 0.00 0.00 0.00 65 1020.4
20260507185545 59 44 0.9 2.6 0.00 0.00 0.00 65 1020.4
20260507184543 59 14 2.6 5.2 0.00 0.00 0.00 64 1020.4
20260507183542 60 353 1.7 3.5 0.00 0.00 0.00 63 1020.5
20260507182540 60 16 0.9 2.6 0.00 0.00 0.00 63 1020.6
20260507181538 60 12 0.9 1.7 0.00 0.00 0.00 62 1020.7
20260507180536 60 293 0.9 2.6 0.00 0.00 0.00 64 1020.6
20260507175534 60 320 0.9 1.7 0.00 0.00 0.00 64 1020.7
20260507174532 60 288 1.7 3.5 0.00 0.00 0.00 65 1020.8
20260507173531 60 321 0.9 1.7 0.00 0.00 0.00 64 1020.8
20260507172529 60 241 1.7 5.2 0.00 0.00 0.00 65 1020.8
20260507171551 61 256 1.7 5.2 0.00 0.00 0.00 65 1020.8
20260507170546 61 231 0.9 2.6 0.00 0.00 0.00 68 1020.7
20260507165544 60 253 1.7 2.6 0.00 0.00 0.00 67 1020.8
20260507164522 60 245 0.9 1.7 0.00 0.00 0.00 67 1020.8
20260507163521 60 167 0.9 3.5 0.00 0.00 0.00 68 1020.7
20260507162518 59 210 2.6 5.2 0.00 0.00 0.00 70 1021.0
20260507161517 58 227 2.6 5.2 0.00 0.00 0.00 70 1020.9
20260507160615 59 236 0.9 1.7 0.00 0.00 0.00 70 1020.9
20260507155654 59 230 1.7 2.6 0.00 0.00 0.00 70 1020.9
20260507154613 59 247 2.6 5.2 0.00 0.00 0.00 73 1020.8
20260507153610 58 235 0.9 2.6 0.00 0.00 0.00 75 1020.9
20260507152609 56 230 1.7 5.2 0.00 0.00 0.00 80 1021.1
20260507151607 53 171 0.9 1.7 0.00 0.00 0.00 81 1021.1
20260507150605 53 190 0.9 1.7 0.00 0.00 0.00 82 1021.3
20260507145624 52 165 0.9 1.7 0.00 0.00 0.00 82 1021.2
20260507144622 52 191 0.9 1.7 0.00 0.00 0.00 83 1021.2
20260507143620 51 169 0.9 1.7 0.00 0.00 0.00 83 1021.2
20260507142618 51 152 0.9 1.7 0.00 0.00 0.00 82 1021.2
20260507141556 51 153 0.9 1.7 0.00 0.00 0.00 82 1021.1
20260507140555 51 161 0.9 2.6 0.00 0.00 0.00 82 1021.1
20260507135553 51 179 0.0 0.9 0.00 0.00 0.00 82 1020.9
20260507134612 51 180 0.0 0.9 0.00 0.00 0.00 82 1020.9
20260507133550 51 203 0.0 0.9 0.00 0.00 0.00 82 1020.7
20260507132608 50 220 0.0 1.7 0.00 0.00 0.00 82 1020.9
20260507131546 50 195 0.0 1.7 0.00 0.00 0.00 82 1020.8
20260507130545 51 211 0.9 2.6 0.00 0.00 0.00 81 1020.5
20260507125542 51 214 0.9 2.6 0.00 0.00 0.00 81 1020.7
20260507124541 51 193 0.0 0.9 0.00 0.00 0.00 81 1020.8
20260507123540 51 158 0.0 1.7 0.00 0.00 0.00 82 1020.8
20260507122558 51 221 0.0 0.9 0.00 0.00 0.00 81 1020.8
20260507121536 51 218 0.0 1.7 0.00 0.00 0.00 82 1020.8
20260507120534 51 214 0.0 0.9 0.00 0.00 0.00 82 1020.9
20260507115532 51 211 0.0 0.9 0.00 0.00 0.00 82 1021.1
20260507114551 51 173 0.0 0.9 0.00 0.00 0.00 81 1021.2
20260507113529 51 164 0.0 0.9 0.00 0.00 0.00 81 1021.3
20260507112527 51 203 0.0 0.9 0.00 0.00 0.00 81 1021.3
20260507111525 51 0.0 0.0 0.00 0.00 0.00 81 1021.3
20260507110524 51 167 0.0 0.9 0.00 0.00 0.00 81 1021.3
20260507105522 51 216 0.0 0.9 0.00 0.00 0.00 81 1021.3
20260507104521 51 175 0.0 1.7 0.00 0.00 0.00 81 1021.3
20260507103519 51 143 0.9 1.7 0.00 0.00 0.00 81 1021.4
20260507102537 51 150 0.9 0.9 0.00 0.00 0.00 82 1021.4
20260507101615 51 0.0 0.0 0.00 0.00 0.00 82 1021.3
20260507100614 52 0.0 0.0 0.00 0.00 0.00 82 1021.4
20260507095632 52 142 0.0 0.9 0.00 0.00 0.00 82 1021.3
20260507094610 52 187 0.0 0.9 0.00 0.00 0.00 82 1021.2
20260507093649 52 227 0.9 1.7 0.00 0.00 0.00 82 1021.2
20260507092607 52 237 0.0 1.7 0.00 0.00 0.00 82 1021.4
20260507091625 52 223 0.9 2.6 0.00 0.00 0.00 82 1021.3
20260507090603 52 228 0.9 2.6 0.00 0.00 0.00 83 1021.3
20260507085601 52 216 0.0 1.7 0.00 0.00 0.00 84 1021.4
20260507084600 52 224 0.9 2.6 0.00 0.00 0.00 84 1021.3
20260507083559 52 223 1.7 3.5 0.00 0.00 0.00 84 1021.4
20260507082557 52 243 0.0 0.9 0.00 0.00 0.00 84 1021.4
20260507081555 52 215 0.9 1.7 0.00 0.00 0.00 85 1021.4
20260507080553 52 221 0.9 2.6 0.00 0.00 0.00 85 1021.4
20260507075552 52 215 0.9 3.5 0.00 0.00 0.00 86 1021.4
20260507074550 52 218 0.0 1.7 0.00 0.00 0.00 86 1021.5
20260507073548 52 222 0.9 2.6 0.00 0.00 0.00 86 1021.4
20260507072546 52 176 0.9 1.7 0.00 0.00 0.00 86 1021.4
20260507071545 52 238 1.7 3.5 0.00 0.00 0.00 86 1021.5
20260507070542 52 223 0.9 2.6 0.00 0.00 0.00 86 1021.4
20260507065601 52 219 0.9 3.5 0.00 0.00 0.00 86 1021.4
20260507064539 52 247 1.7 3.5 0.00 0.00 0.00 86 1021.4
20260507063537 52 237 1.7 5.2 0.00 0.00 0.00 85 1021.3
20260507062536 52 231 0.9 2.6 0.00 0.00 0.00 85 1021.4
20260507061535 52 226 1.7 3.5 0.00 0.00 0.00 85 1021.5
20260507060532 53 246 0.9 2.6 0.00 0.00 0.00 84 1021.5
20260507055530 53 219 0.9 1.7 0.00 0.00 0.00 83 1021.5
20260507054529 53 249 2.6 5.2 0.00 0.00 0.00 83 1021.4
20260507053548 53 244 2.6 3.5 0.00 0.00 0.00 82 1021.4
20260507052526 54 246 2.6 3.5 0.00 0.00 0.00 81 1021.6
20260507051524 54 263 0.9 5.2 0.00 0.00 0.00 80 1021.4
20260507050522 54 250 1.7 3.5 0.00 0.00 0.00 79 1021.5
20260507045520 55 253 2.6 6.1 0.00 0.00 0.00 79 1021.4
20260507044519 55 255 1.7 5.2 0.00 0.00 0.00 78 1021.2
20260507043516 55 259 2.6 5.2 0.00 0.00 0.00 78 1021.2
20260507042615 55 239 1.7 3.5 0.00 0.00 0.00 77 1021.4
20260507041654 55 244 0.0 1.7 0.00 0.00 0.00 77 1021.4
20260507040611 55 254 0.9 2.6 0.00 0.00 0.00 77 1021.3
20260507035610 55 255 1.7 3.5 0.00 0.00 0.00 77 1021.1
20260507034609 55 255 1.7 5.2 0.00 0.00 0.00 77 1021.1
20260507033606 55 243 1.7 5.2 0.00 0.00 0.00 76 1020.9
20260507032605 56 248 1.7 5.2 0.00 0.00 0.00 76 1021.0
20260507031603 56 248 1.7 3.5 0.00 0.00 0.00 76 1020.8
20260507030601 56 241 3.5 7.8 0.00 0.00 0.00 75 1020.7
20260507025559 56 237 2.6 6.1 0.00 0.00 0.00 75 1020.7
20260507024558 56 272 1.7 6.1 0.00 0.00 0.00 74 1020.6